Orbital Elements at Epoch 2459000.5 (2020-May-31.0) TDB
Reference: JPL 38 (heliocentric ecliptic J2000)
Element | Value | Uncertainty (1-sigma) | Units |
e | .1391619448219167 | 3.1283e-08 | |
a | 2.360730131915026 | 6.1317e-09 | au |
q | 2.032206335558031 | 7.5652e-08 | au |
i | 7.044594694773644 | 3.2691e-06 | deg |
node | 3.426686700573643 | 2.5408e-05 | deg |
peri | 338.361118674251 | 2.7525e-05 | deg |
M | 312.0101611080024 | 1.0736e-05 | deg |
tp | 2459177.109773287794 (2020-Nov-23.60977329) | 3.962e-05 | TDB |
period | 1324.853757619261 3.63 | 5.1617e-06 1.413e-08 | d yr |
n | .2717281042753834 | 1.0587e-09 | deg/d |
Q | 2.689253928272021 | 6.985e-09 | au |
|
| | Orbit Determination Parameters
Additional Information
|